Location: Lhota
(50.0887°N, 14.0116°E)
Time: 00:41:34
(UTC+00:00)

Spot 2 Rocket - Pass Details

Date: 19 May 2025
Orbit: 753 x 766 km, 98.3° (Epoch: 22 June)

Event Time Altitude Azimuth Distance (km) Brightness Sun altitude
Exits shadow 20:17:46 10° 174° (S) 2,278 5.4 -11.3°
Reaches altitude 10° 20:17:46 10° 174° (S) 2,274 5.4 -11.3°
Maximum altitude 20:22:45 68° 257° (WSW) 817 3.7 -11.8°
Drops below altitude 10° 20:27:48 10° 341° (NNW) 2,297 7.3 -12.3°
Sets 20:30:08 0° 344° (NNW) 3,229 8.2 -12.5°
